TimeMST,TemperatureF,Dew PointF,Humidity,Sea Level PressureIn,VisibilityMPH,Wind Direction,Wind SpeedMPH,Gust SpeedMPH,PrecipitationIn,Events,Conditions,WindDirDegrees,DateUTC
12:54 AM,55.9,52.0,87,30.05,10.0,ENE,3.5,-,N/A,,Mostly Cloudy,70,2013-09-05 07:54:00
1:54 AM,55.0,52.0,89,30.05,10.0,Calm,Calm,-,N/A,,Mostly Cloudy,0,2013-09-05 08:54:00
2:54 AM,53.1,51.1,93,30.05,10.0,Calm,Calm,-,N/A,,Clear,0,2013-09-05 09:54:00
3:54 AM,52.0,48.9,89,30.05,10.0,Calm,Calm,-,N/A,,Clear,0,2013-09-05 10:54:00
4:54 AM,50.0,48.0,93,30.10,10.0,Calm,Calm,-,N/A,,Partly Cloudy,0,2013-09-05 11:54:00
5:54 AM,51.1,48.0,89,30.11,10.0,Calm,Calm,-,N/A,,Clear,0,2013-09-05 12:54:00
6:54 AM,54.0,51.1,90,30.12,10.0,Calm,Calm,-,N/A,,Scattered Clouds,0,2013-09-05 13:54:00
7:54 AM,64.0,54.0,70,30.11,10.0,Calm,Calm,-,N/A,,Scattered Clouds,0,2013-09-05 14:54:00
8:54 AM,73.0,53.1,49,30.09,10.0,SSE,3.5,-,N/A,,Scattered Clouds,160,2013-09-05 15:54:00
9:54 AM,78.1,46.9,33,30.09,10.0,SW,8.1,-,N/A,,Overcast,220,2013-09-05 16:54:00
10:54 AM,79.0,48.0,34,30.08,10.0,SW,6.9,-,N/A,,Scattered Clouds,220,2013-09-05 17:54:00
11:54 AM,79.0,45.0,30,30.07,10.0,Variable,5.8,-,N/A,,Mostly Cloudy,0,2013-09-05 18:54:00
12:54 PM,75.9,45.0,33,30.09,10.0,Calm,Calm,-,N/A,,Mostly Cloudy,0,2013-09-05 19:54:00
1:54 PM,75.9,46.9,36,30.09,10.0,ENE,12.7,-,N/A,,Scattered Clouds,60,2013-09-05 20:54:00
2:54 PM,78.1,48.9,36,30.07,10.0,Variable,5.8,-,N/A,,Mostly Cloudy,0,2013-09-05 21:54:00
3:54 PM,75.9,48.9,38,30.07,10.0,Variable,5.8,-,N/A,,Overcast,0,2013-09-05 22:54:00
4:54 PM,75.0,51.1,43,30.06,10.0,NE,3.5,-,N/A,,Scattered Clouds,40,2013-09-05 23:54:00
5:54 PM,75.9,51.1,42,30.04,10.0,Calm,Calm,-,N/A,,Partly Cloudy,0,2013-09-06 00:54:00
6:54 PM,66.9,55.0,66,30.06,10.0,Calm,Calm,-,N/A,,Clear,0,2013-09-06 01:54:00
7:54 PM,60.1,54.0,80,30.06,10.0,Calm,Calm,-,N/A,,Clear,0,2013-09-06 02:54:00
8:54 PM,57.9,53.1,84,30.05,10.0,Calm,Calm,-,N/A,,Clear,0,2013-09-06 03:54:00
9:54 PM,55.9,52.0,87,30.05,10.0,Calm,Calm,-,N/A,,Clear,0,2013-09-06 04:54:00
10:54 PM,55.0,50.0,83,30.04,10.0,Calm,Calm,-,N/A,,Clear,0,2013-09-06 05:54:00
11:54 PM,53.1,48.9,86,30.06,10.0,Calm,Calm,-,N/A,,Clear,0,2013-09-06 06:54:00